{"data":{"norad_id":68385,"epoch":"2026-09-19T08:38:53.552256Z","epoch_age_seconds":146018,"freshness":"FRESH","line1":"1 68385U 26063F   26262.36034204  .00025991  00000+0  80447-3 0  9998","line2":"2 68385  97.2851  43.2314 0000347  69.9454 290.1826 15.33452055 27574","mean_motion":15.33452055,"eccentricity":3.47e-5,"inclination_deg":97.2851,"raan_deg":43.2314,"arg_perigee_deg":69.9454,"mean_anomaly_deg":290.1826,"bstar":0.00080447,"rev_number":2757,"period_min":93.905772619673,"perigee_km":465.28470886854,"apogee_km":465.7596588159,"semimajor_km":6843.6591838422,"source":"CELESTRAK","updated_at":"2026-09-20T09:00:43.893326Z"}}